User: anonymous   Login
Location: Unspecified
(0.0000°N, 0.0000°E)
Time: 18:04:28
(UTC+00:00)
Language:

OBJECT A - Orbit

View from above orbital plane
View from above orbital plane
View from above satellite
View from above satellite

Ground track
Ground track

The orbit is defined by the following mean orbital elements,

1 65815U          26145.42136528 +.00000000 +00000-0 +39068-4 0 00007
2 65815  98.6762  86.6344 0001551  94.5908 265.5446 14.19915707    09
Epoch (UTC): 25 May 2026 10:06:45
Eccentricity: 0.0001551
inclination: 98.6762°
perigee height: 825 km
apogee height: 827 km
right ascension of ascending node: 86.6344°
argument of perigee: 94.5908°
revolutions per day: 14.19915707
mean anomaly at epoch: 265.5446°

The dashed part of the orbit path shows where the satellite is in the earth's shadow,  

DLR